Change the Weather History Date:

Wednesday, March 20, 2013

  Actual Average Record
Temperature  
Mean Temperature 54 °F 47 °F  
Max Temperature 66 °F 61 °F 82 °F (1997)
Min Temperature 43 °F 33 °F 19 °F (2012)
Degree Days  
Heating Degree Days 10    
Month to date heating degree days  
Since 1 July heating degree days  
Cooling Degree Days 0    
Month to date cooling degree days  
Year to date cooling degree days  
Growing Degree Days 4 (Base 50)    
Moisture  
Dew Point 26 °F    
Average Humidity 34    
Maximum Humidity 56    
Minimum Humidity 19    
Precipitation  
Precipitation 0.00 in 0.03 in 0.26 in (1979)
Month to date precipitation 0.75  
Year to date precipitation 3.26  
Sea Level Pressure  
Sea Level Pressure 29.92 in    
Wind  
Wind Speed 6 mph (SSW)    
Max Wind Speed 18 mph    
Max Gust Speed 28 mph    
Visibility 10 miles    
Events      
T = Trace of Precipitation, MM = Missing Value Source: NWS Daily Summary

Daily Weather History Graph

Daily Weather History Graph

Search for Another Location

Airport or City:

Trip Planner

Search our weather history database for the weather conditions in past years. The results will help you decide how hot, cold, wet, or windy it might be!

Date:

Astronomy

Mar. 20, 2013 Rise Set
Actual Time 6:32 AM MST 6:41 PM MST
Civil Twilight 6:07 AM MST 7:06 PM MST
Nautical Twilight 5:38 AM MST 7:36 PM MST
Astronomical Twilight 5:08 AM MST 8:05 PM MST
Moon 12:33 PM MST (3/20) 2:02 AM MST (3/20)
Length of Visible Light 12h 59m
Length of Day
12h 08m
First Quarter, 60% of the Moon is Illuminated
Mar 20
First Quarter
Mar 27
Full
Apr 2
Last Quarter
Apr 10
New
Apr 18
First Quarter

Hourly Weather History & Observations

Time (MST) Temp. Windchill Dew Point Humidity Pressure Visibility Wind Dir Wind Speed Gust Speed Precip Events Conditions
12:53 AM 48.9 °F - 27.0 °F 43% 30.01 in 10.0 mi Calm Calm - N/A   Clear
1:53 AM 46.9 °F - 28.0 °F 48% 30.00 in 10.0 mi Calm Calm - N/A   Clear
2:53 AM 44.1 °F 40.8 °F 27.0 °F 51% 30.01 in 10.0 mi South 5.8 mph - N/A   Clear
3:53 AM 45.0 °F 43.5 °F 27.0 °F 49% 29.97 in 10.0 mi South 3.5 mph - N/A   Clear
4:53 AM 43.0 °F 38.8 °F 28.0 °F 56% 29.98 in 10.0 mi South 6.9 mph - N/A   Clear
5:53 AM 44.1 °F 41.5 °F 27.0 °F 51% 29.97 in 10.0 mi SSW 4.6 mph - N/A   Clear
6:53 AM 46.0 °F 42.5 °F 27.0 °F 47% 29.98 in 10.0 mi SSW 6.9 mph - N/A   Clear
7:53 AM 50.0 °F - 28.0 °F 43% 29.98 in 10.0 mi SSW 6.9 mph - N/A   Clear
8:53 AM 57.9 °F - 28.0 °F 32% 29.98 in 10.0 mi South 3.5 mph - N/A   Clear
9:53 AM 62.1 °F - 25.0 °F 24% 29.97 in 10.0 mi SSW 12.7 mph 19.6 mph N/A   Clear
10:53 AM 63.0 °F - 24.1 °F 23% 29.97 in 10.0 mi SSW 16.1 mph - N/A   Clear
11:53 AM 64.9 °F - 26.1 °F 23% 29.95 in 10.0 mi SSW 12.7 mph 19.6 mph N/A   Clear
12:53 PM 66.0 °F - 25.0 °F 21% 29.94 in 10.0 mi SW 17.3 mph 24.2 mph N/A   Clear
1:53 PM 66.0 °F - 25.0 °F 21% 29.90 in 10.0 mi SW 17.3 mph 26.5 mph N/A   Clear
2:53 PM 66.0 °F - 27.0 °F 23% 29.89 in 10.0 mi SSW 13.8 mph 21.9 mph N/A   Clear
3:53 PM 66.0 °F - 25.0 °F 21% 29.87 in 10.0 mi SSW 18.4 mph - N/A   Clear
4:53 PM 64.9 °F - 21.0 °F 19% 29.87 in 10.0 mi SW 17.3 mph 27.6 mph N/A   Clear
5:53 PM 63.0 °F - 21.9 °F 21% 29.86 in 10.0 mi SW 15.0 mph 26.5 mph N/A   Clear
6:53 PM 61.0 °F - 24.1 °F 24% 29.86 in 10.0 mi WSW 6.9 mph - N/A   Clear
7:53 PM 59.0 °F - 27.0 °F 29% 29.85 in 10.0 mi West 3.5 mph - N/A   Clear
8:53 PM 57.9 °F - 28.9 °F 33% 29.83 in 10.0 mi Calm Calm - N/A   Clear
9:53 PM 57.0 °F - 30.0 °F 36% 29.81 in 10.0 mi Variable 4.6 mph - N/A   Clear
11:53 PM 57.0 °F - 28.0 °F 33% 29.76 in 10.0 mi SE 6.9 mph - N/A   Clear